Weather History for HKMO - December, 2012

Change the Weather History Date:

Sunday, December 30, 2012

  Actual Average Record
Temperature  
Mean Temperature 82 °F -  
Max Temperature 92 °F 92 °F 92 °F (2012)
Min Temperature 73 °F 72 °F 72 °F (2013)
Cooling Degree Days 18    
Growing Degree Days 32 (Base 50)    
Moisture  
Dew Point 73 °F    
Average Humidity 73    
Maximum Humidity 94    
Minimum Humidity 44    
Precipitation  
Precipitation 0.00 in 0.04 in - ()
Sea Level Pressure  
Sea Level Pressure 29.86 in    
Wind  
Wind Speed 5 mph ()    
Max Wind Speed 15 mph    
Max Gust Speed -    
Visibility 7.7 miles    
Events      
Averages and records for this station are not official NWS values.
T = Trace of Precipitation, MM = Missing Value Source: Averaged Metar Reports

Daily Weather History Graph

Daily Weather History Graph

Search for Another Location

Airport or City:

Trip Planner

Search our weather history database for the weather conditions in past years. The results will help you decide how hot, cold, wet, or windy it might be!

Date:

Astronomy

Dec. 30, 2012 Rise Set
Actual Time 6:13 AM EAT 6:34 PM EAT
Civil Twilight 5:50 AM EAT 6:57 PM EAT
Nautical Twilight 5:24 AM EAT 7:23 PM EAT
Astronomical Twilight 4:57 AM EAT 7:50 PM EAT
Moon 8:11 PM EAT (12/30) 7:38 AM EAT (12/30)
Length of Visible Light 13h 06m
Length of Day
12h 21m
Waning Gibbous, 96% of the Moon is Illuminated
Dec 30
Waning Gibbous
Jan 5
Last Quarter
Jan 11
New
Jan 19
First Quarter
Jan 27
Full

Hourly Weather History & Observations

Time (EAT) Temp. Heat Index Dew Point Humidity Pressure Visibility Wind Dir Wind Speed Gust Speed Precip Events Conditions
12:00 AM 78.8 °F - 75.2 °F 89% 29.89 in 6.2 mi NNW 3.5 mph - N/A   Partly Cloudy
1:00 AM 78.8 °F - 75.2 °F 89% 29.86 in 6.2 mi North 3.5 mph - N/A   Partly Cloudy
2:00 AM 78.8 °F - 75.2 °F 89% 29.86 in 6.2 mi NNE 3.5 mph - N/A   Partly Cloudy
3:00 AM 78.8 °F - 73.4 °F 83% 29.86 in 6.2 mi Calm Calm - N/A   Partly Cloudy
3:30 AM 77.0 °F - 73.4 °F 89% 29.86 in 6.2 mi Calm Calm - N/A   Partly Cloudy
5:30 AM 77.0 °F - 73.4 °F 89% 29.86 in 6.2 mi WNW 3.5 mph - N/A   Partly Cloudy
7:00 AM 77.0 °F - 75.2 °F 94% 29.89 in 6.2 mi NW 3.5 mph - N/A   Partly Cloudy
8:00 AM 82.4 °F 89.5 °F 75.2 °F 79% 29.89 in 6.2 mi North 4.6 mph - N/A   Partly Cloudy
9:00 AM 85 °F - 76 °F 67% 29.92 in 19 mi NNE 5.8 mph - -   Partly Cloudy
9:00 AM 86.0 °F 95.1 °F 75.2 °F 70% 29.92 in 6.2 mi NNE 5.8 mph - N/A   Scattered Clouds
10:00 AM 87.8 °F 93.8 °F 71.6 °F 58% 29.92 in 6.2 mi NE 6.9 mph - N/A   Partly Cloudy
11:00 AM 73.4 °F - 68.0 °F 83% 29.89 in 6.2 mi NNE 11.5 mph - N/A   Scattered Clouds
12:00 PM 89.6 °F 98.2 °F 73.4 °F 59% 29.89 in 6.2 mi East 11.5 mph - N/A   Scattered Clouds
1:00 PM 91.4 °F 96.8 °F 69.8 °F 49% 29.86 in 6.2 mi East 12.7 mph - N/A   Scattered Clouds
2:00 PM 91.4 °F 96.8 °F 69.8 °F 49% 29.83 in 6.2 mi East 13.8 mph - N/A   Partly Cloudy
3:00 PM 90 °F - 71 °F 44% 29.82 in 19 mi East 15.0 mph - -   Scattered Clouds
3:00 PM 89.6 °F 96.2 °F 71.6 °F 55% 29.80 in 6.2 mi East 15.0 mph - N/A   Partly Cloudy
4:00 PM 87.8 °F 93.8 °F 71.6 °F 58% 29.80 in 6.2 mi ESE 13.8 mph - N/A   Scattered Clouds
5:00 PM 87.8 °F 93.8 °F 71.6 °F 58% 29.80 in 6.2 mi ESE 13.8 mph - N/A   Partly Cloudy
6:00 PM 86.0 °F 93.4 °F 73.4 °F 66% 29.80 in 6.2 mi East 12.7 mph - N/A   Partly Cloudy
8:00 PM 82.4 °F 88.2 °F 73.4 °F 74% 29.83 in 6.2 mi ENE 8.1 mph - N/A   Partly Cloudy
9:00 PM 81 °F - 75 °F 76% 29.86 in 19 mi NNE 4.6 mph - -   Scattered Clouds
9:00 PM 80.6 °F 86.2 °F 75.2 °F 84% 29.86 in 6.2 mi NNE 4.6 mph - N/A   Partly Cloudy
10:00 PM 80.6 °F 86.2 °F 75.2 °F 84% 29.89 in 6.2 mi NNE 3.5 mph - N/A   Partly Cloudy
11:00 PM 80.6 °F 86.2 °F 75.2 °F 84% 29.89 in 6.2 mi NNE 3.5 mph - N/A   Partly Cloudy